Regional Weather Roundup
Issued by NWS San Angelo, TX

Home | Current Version | Previous Version | Text Only | Print | Product List | Glossary On
Versions: 1 2 3 4 5 6 7 8 9 10 11 12 13 14 15 16 17 18 19 20 21 22 23 24 25 26 27 28 29 30 31 32 33 34 35 36 37 38 39 40 41 42 43 44 45 46 47 48 49 50
000
ASUS44 KSJT 011910
RWRSJT
WEST CENTRAL TEXAS REGIONAL WEATHER ROUNDUP
NATIONAL WEATHER SERVICE SAN ANGELO TX
200 PM CDT MON SEP 01 2014

NOTE: "FAIR" INDICATES FEW OR NO CLOUDS BELOW 12,000 FEET WITH NO
SIGNIFICANT WEATHER AND/OR OBSTRUCTIONS TO VISIBILITY.

TXZ049-054-064>066-071>073-076>078-098-099-113-114-127-128-139-140-
154-155-168>170-012000
...LOCATIONS ACROSS WEST CENTRAL TEXAS...

CITY           SKY/WX    TMP DP  RH WIND       PRES   REMARKS
SAN ANGELO     SUNNY     96  64  34 S15       29.88F
ABILENE        SUNNY     97  65  34 S18       29.88F
DYESS AFB      MOSUNNY   96  67  39 S18G32    29.86F
JUNCTION       SUNNY     93  62  35 SE15G21   29.92F
SWEETWATER     SUNNY     96  62  31 S14G22    29.91F
BROWNWOOD      SUNNY     93  64  38 S15G22    29.90F
COLEMAN        CLEAR     94  61  32 S12G23    29.90F
SONORA         SUNNY     91  66  43 S9G17     29.97F
OZONA          FAIR      93  63  36 S16       29.95F
BRADY          SUNNY     93  64  38 S12       29.91F
$$

TEXAS PANHANDLE/OKLAHOMA PANHANDLE

CITY           SKY/WX    TMP DP  RH WIND       PRES   REMARKS
AMARILLO       SUNNY     87  59  38 NE7       29.95F
BORGER         SUNNY     87  60  40 N9G18     29.92F
CANADIAN       SUNNY     81  67  62 N7        29.88S
DALHART        SUNNY     84  54  35 MISG      30.00F
DUMAS          CLEAR     83  60  45 NE7       29.97S
GUYMON         NOT AVBL
HEREFORD       CLEAR     90  57  32 N6        29.96F
PAMPA          CLEAR     83  59  44 NE8       29.93F
PERRYTON       SUNNY     81  63  55 N9        29.91S
$$

SOUTHERN PANHANDLE/SOUTH PLAINS/ROLLING PLAINS

CITY           SKY/WX    TMP DP  RH WIND       PRES   REMARKS
LUBBOCK        SUNNY     96  56  26 SW9       29.91F
SNYDER         SUNNY     95  67  39 S15G22    29.89F
CHILDRESS      SUNNY     96  66  37 SW12      29.84F
SEMINOLE       CLEAR     98  47  17 W6        29.93F
$$

PERMIAN BASIN

CITY           SKY/WX    TMP DP  RH WIND       PRES   REMARKS
MIDLAND        SUNNY     98  58  26 S9        29.90F
ODESSA         SUNNY     97  54  23 SW8       29.92F
WINK           SUNNY    101  43  13 CALM      29.88F
$$

FAR WEST/SOUTHWEST MOUNTAINS/TRANS PECOS

CITY           SKY/WX    TMP DP  RH WIND       PRES   REMARKS
ALPINE         CLEAR     95  46  18 E8        30.10F
DRYDEN           N/A     98  63  31 VRB6      29.89F
EL PASO        MOSUNNY   95  38  13 W14G23    30.01F
FORT STOCKTON  SUNNY    101  46  15 VRB3      29.92F
GUADALUPE PASS SUNNY     93  42  17 W24G31    30.13F
MARFA          PTSUNNY   90  46  22 CALM      30.11F
PECOS          CLEAR    101  49  17 NE5G20    29.87F
$$

DALLAS/FORT WORTH METROPLEX

CITY           SKY/WX    TMP DP  RH WIND       PRES   REMARKS
DFW AIRPORT    MOSUNNY   94  71  47 S15G24    29.89F
FTW MEACHAM    MOSUNNY   96  70  42 SE17G23   29.88F
DAL-EXECUTIVE  MOSUNNY   95  69  42 SE13G22   29.90F
GRAND PRAIRIE  SUNNY     93  70  46 MISG      29.91F
ADDISON        PTSUNNY   91  68  46 SE10G21   29.91F
MESQUITE       MOCLDY    93  66  40 SE13G18   29.92F
LANCASTER      PTCLDY    93  69  44 S8G18     29.92F
$$

NORTH CENTRAL TEXAS

CITY           SKY/WX    TMP DP  RH WIND       PRES   REMARKS
SHRMAN/DENISON PTCLDY    93  69  44 S13G21    29.91F
GAINESVILLE    MOSUNNY   90  73  56 SE15      29.91F
BRIDGEPORT     CLEAR     94  65  38 S12G17    29.89F
DENTON         MOSUNNY   93  70  46 SE16G23   29.88F
WAXAHACHIE     PTCLDY    92  66  41 S14G21    29.92F
GRANBURY       CLEAR     97  66  36 S13G24    29.89S
$$

WESTERN NORTH TEXAS

CITY           SKY/WX    TMP DP  RH WIND       PRES   REMARKS
WICHITA FALLS  SUNNY     97  68  38 S17G24    29.82F
VERNON         CLEAR     96  66  37 S13G24    29.82F
BRECKENRIDGE   CLEAR     97  62  31 S20       29.86F HAZE
COMANCHE         N/A     96  62  32 S16G24    29.90F
$$

CENTRAL AND SOUTH CENTRAL TEXAS

CITY           SKY/WX    TMP DP  RH WIND       PRES   REMARKS
AUSTIN/BERGSTM MOSUNNY   97  68  38 S15G21    29.90F
WACO           MOSUNNY   95  68  41 S17G24    29.90F
HILLSBORO      CLEAR     94  67  41 S16G23    29.91F
TEMPLE         MOSUNNY   97  66  36 S16G25    29.91S
KILLEEN-GRAY   PTSUNNY   93  68  43 S12G22    29.91F
FORT HOOD      MOSUNNY   97  67  37 SE13G22   29.91F
GEORGETOWN     NOT AVBL
LAGO VISTA     MOCLDY    93  65  38 SE7G18    29.94F
SAN MARCOS     PTSUNNY   93  66  40 SE12G18   29.92F
NEW BRAUNFELS  PTSUNNY   97  67  37 S14       29.90F
RANDOLPH AFB   MOSUNNY   96  66  36 S13G18    29.91F
SAN ANTONIO    PTSUNNY   96  68  39 S10G20    29.91F
STINSON        MOSUNNY   97  67  37 S12G23    29.88F
PLEASANTON     NOT AVBL
LA GRANGE      SUNNY     98  71  42 S10G16    29.89F
GIDDINGS       PTCLDY    94  65  39 S8        29.95F
$$

EAST TEXAS

CITY           SKY/WX    TMP DP  RH WIND       PRES   REMARKS
PARIS          MOSUNNY   91  70  49 S14       29.95F
CLARKSVILLE    NOT AVBL
TYLER          MOSUNNY   93  68  43 S10       29.96F
LONGVIEW       MOSUNNY   95  69  42 S9G20     29.96F
PALESTINE      PTCLDY    93  70  47 SE13      29.96F
NACOGDOCHES    MOSUNNY   91  72  52 S9        29.96F
$$

TEXAS HILL COUNTRY AND EDWARDS PLATEAU

CITY           SKY/WX    TMP DP  RH WIND       PRES   REMARKS
LLANO          CLEAR     99  64  32 S9G16     29.93F
HORSESHOE BAY  FAIR      94  63  35 S10G18    29.92F
KERRVILLE      SUNNY     92  67  44 S9G18     29.95F
FREDERICKSBRG  MOSUNNY   91  63  39 S10G17    29.94F
ROCKSPRINGS    CLEAR     90  66  45 SE12G20   29.98F
HONDO          MOSUNNY   95  67  39 S10G22    29.92F
UVALDE         CLEAR     97  65  34 S12G18    29.89F
DEL RIO        SUNNY     96  69  41 S15G22    29.85F
$$

SOUTHEAST TEXAS

CITY           SKY/WX    TMP DP  RH WIND       PRES   REMARKS
COLLEGE STN    MOSUNNY   95  70  44 S14G23    29.92F
CALDWELL       PTCLDY    91  68  46 SE9G18    29.94F
CROCKETT       NOT AVBL
BRENHAM        SUNNY     95  71  44 SE14G21   29.93F
HUNTSVILLE     MOSUNNY   94  68  42 S8        29.95F
CONROE         SUNNY     92  73  53 SE7       29.95F
HOUSTON BUSH   LGT RAIN  81  75  83 CALM      29.95F
HOUSTON HOBBY  MOSUNNY   90  73  57 SE10      29.94S
PERLAND        MOSUNNY   91  73  55 SE13G21   29.96F
WHARTON        PTCLDY    92  73  53 SE13G20   29.94F
$$

THE UPPER TEXAS COAST

CITY           SKY/WX    TMP DP  RH WIND       PRES   REMARKS
ORANGE         MOCLDY    87  75  67 SE13      29.98F
PORT ARTHUR    MOSUNNY   89  76  65 S13       29.96F
GALVESTON      MOSUNNY   89  78  70 SE14      29.96F
ANGLETON       MOSUNNY   90  76  63 SE14      29.95F
BAY CITY       PTCLDY    92  76  58 S9        29.94F
$$

TEXAS COASTAL BEND, RIO GRANDE PLAINS DEEP SOUTH TEXAS

CITY           SKY/WX    TMP DP  RH WIND       PRES   REMARKS
VICTORIA       CLOUDY    92  74  55 SE17      29.92F
BEEVILLE       MOCLDY    95  70  44 SE16      29.90S
ROCKPORT       SUNNY     91  77  63 SE15      29.92F
PORT ARANSAS   PTCLDY    88  77  69 SE13      29.92F
PORT LAVACA    PTCLDY    91  75  58 SE12      29.92F
CORPUS CHRISTI PTSUNNY   90  76  63 SE16G24   29.90F
KINGSVILLE NAS MOSUNNY   95  76  53 SE21      29.89F
COTULLA        MOSUNNY   96  64  34 S8G16     29.87F
LAREDO         SUNNY     99  65  32 S15       29.88F
BROWNSVILLE    MOSUNNY   92  76  59 E14       29.89F
PORT ISABEL    SUNNY     92  76  59 E15       29.89F
HEBBRONVILLE   CLEAR     96  64  35 SE12G18   29.89F
MCALLEN        MOSUNNY   94  74  52 SE12      29.87F
WESLACO        NOT AVBL
FALFURRIAS     MOCLDY    92  70  48 E12       29.88F
EDINBURG       MOCLDY    97  70  41 S12       29.87F
$$


USA.gov is the U.S. government's official web portal to all federal, state and local government web resources and services.